Weather in Ribnovsk

Russia / Sakhalin District     53°16′29″N   141°47′30″E
В апреле 2022 года жителям России запретили посещать сайт meteo.paraplan.net по решению Генеральной прокуратуры. Аудитория сайта уменьшилась в 10 раз. Владельцы сайта не видят смысла в поддержке погодного сервера в таких условиях. Сайт будет закрыт в октябре.
temp.,
°C
wind,
m/s
gust,
m/s
humid.,
%
clouds,
%
prec.,
mm/h
press.,
hPa
HPBL,
m
25 september, sun
sun2523:00+11ene111595100 10.0 1002863
02:00+11ne91396100 9.5 999880
05:00+11ne91394100 13.8 998900
08:00+10n151693100 1.8 999802
11:00+10n151592100 2.4 1001938
14:00+10nnw151791100 0.6 10031157
17:00+10nnw131589100 1.3 10061125
20:00+9n91184100 0.6 1010949
26 september, mon
mon2623:00+9nnw91081100 0.8 1012972
02:00+9nnw6779100 0.2 1013702
05:00+9nne347888 0.3 1013436
08:00+7se55867 0.0 1013252
11:00+9se687799 0.0 1011525
14:00+12s81277100 0.0 1009685
17:00+13s91482100 0.0 1007450
20:00+12sse81492100 0.8 1006354
27 september, tue
tue2723:00+12ssw71094100 3.6 1004186
02:00+11wsw5787100 0.9 1004201
05:00+9w101368100 1.0 1005701
08:00+8w91364100 0.0 10051103
11:00+9w9115856 0.0 10051404
14:00+9wnw101258100 0.0 10041900
17:00+9wnw13167091 0.3 10061551
20:00+9wnw1114656 0.1 10081329
28 september, wed
wed2823:00+9wnw7868100 0.1 1008732
02:00+8w4466100 0.0 1008436
05:00+8se3363100 0.0 1006155
08:00+8sse71073100 0.1 1004417
11:00+9sse91595100 3.1 999683
14:00+11w578543 0.1 999239
17:00+11wnw911775 0.2 1000730
20:00+9wnw12157413 0.0 10031021
29 september, thu
thu2923:00+8nw12147261 0.1 10061378
02:00+8nw111272100 0.3 10071406
05:00+8wnw1011735 0.4 10091013
08:00+7wnw1112665 0.1 10111205
11:00+7wnw1012625 0.1 10121352
14:00+8nw912535 0.0 10121433
17:00+9nw71050100 0.0 10121502
20:00+9wnw5654100 0.0 1011949